METAR Formatted Surface Weather Observation
Issued by NWS

Home | Current Version | Previous Version | Text Only | Print | Product List | Glossary On
Versions: 1 2 3 4 5 6 7 8 9 10 11 12 13 14 15 16 17 18 19 20 21 22 23 24 25 26 27
000
SAUS44 KSHV 252056
MTRBKB
METAR KBKB 252054Z AUTO 02003KT 10SM CLR 16/00 A3017 RMK AO2 SLP248
T01560000 56019 $



USA.gov is the U.S. government's official web portal to all federal, state and local government web resources and services.